TimePDT,TemperatureF,Dew PointF,Humidity,Sea Level PressureIn,VisibilityMPH,Wind Direction,Wind SpeedMPH,Gust SpeedMPH,PrecipitationIn,Events,Conditions,WindDirDegrees,DateUTC
12:15 AM,51.8,21.2,30,30.16,10.0,SSW,4.6,-,N/A,,Clear,210,2012-10-02 07:15:00
12:35 AM,50.0,21.2,32,30.16,10.0,SSW,5.8,-,N/A,,Clear,200,2012-10-02 07:35:00
12:55 AM,50.0,21.2,32,30.16,10.0,SSW,4.6,-,N/A,,Clear,200,2012-10-02 07:55:00
1:15 AM,50.0,21.2,32,30.16,10.0,SW,6.9,-,N/A,,Clear,220,2012-10-02 08:15:00
1:35 AM,50.0,21.2,32,30.15,10.0,SW,6.9,-,N/A,,Clear,220,2012-10-02 08:35:00
1:55 AM,50.0,21.2,32,30.15,10.0,SSW,8.1,-,N/A,,Clear,210,2012-10-02 08:55:00
2:15 AM,48.2,21.2,34,30.15,10.0,South,3.5,-,N/A,,Clear,190,2012-10-02 09:15:00
2:35 AM,48.2,21.2,34,30.15,10.0,SSW,6.9,-,N/A,,Clear,210,2012-10-02 09:35:00
2:55 AM,48.2,21.2,34,30.15,10.0,SSW,3.5,-,N/A,,Clear,200,2012-10-02 09:55:00
3:55 AM,50.0,21.2,32,30.12,10.0,SSW,11.5,-,N/A,,Clear,200,2012-10-02 10:55:00
4:15 AM,50.0,23.0,35,30.12,10.0,SW,6.9,-,N/A,,Clear,220,2012-10-02 11:15:00
4:35 AM,50.0,24.8,37,30.12,10.0,SW,5.8,-,N/A,,Clear,220,2012-10-02 11:35:00
5:15 AM,51.8,26.6,38,30.12,10.0,Calm,Calm,-,N/A,,Clear,0,2012-10-02 12:15:00
5:35 AM,50.0,26.6,40,30.13,10.0,Calm,Calm,-,N/A,,Clear,0,2012-10-02 12:35:00
5:55 AM,51.8,26.6,38,30.13,10.0,SW,4.6,-,N/A,,Clear,220,2012-10-02 12:55:00
6:15 AM,51.8,26.6,38,30.14,10.0,West,6.9,-,N/A,,Clear,260,2012-10-02 13:15:00
6:35 AM,51.8,28.4,41,30.13,10.0,West,6.9,-,N/A,,Clear,260,2012-10-02 13:35:00
6:55 AM,51.8,28.4,41,30.14,10.0,WSW,5.8,-,N/A,,Clear,250,2012-10-02 13:55:00
7:15 AM,50.0,28.4,43,30.13,10.0,SW,5.8,-,N/A,,Clear,220,2012-10-02 14:15:00
7:35 AM,50.0,28.4,43,30.13,10.0,SW,10.4,-,N/A,,Clear,220,2012-10-02 14:35:00
7:55 AM,50.0,28.4,43,30.14,10.0,West,4.6,-,N/A,,Clear,270,2012-10-02 14:55:00
8:15 AM,53.6,28.4,38,30.14,10.0,WSW,4.6,-,N/A,,Clear,240,2012-10-02 15:15:00
8:55 AM,57.2,28.4,33,30.13,10.0,SW,6.9,-,N/A,,Clear,230,2012-10-02 15:55:00
9:15 AM,59.0,30.2,34,30.14,10.0,West,3.5,-,N/A,,Clear,260,2012-10-02 16:15:00
9:35 AM,62.6,30.2,30,30.14,10.0,SW,3.5,-,N/A,,Clear,230,2012-10-02 16:35:00
9:55 AM,64.4,32.0,30,30.13,10.0,SW,3.5,-,N/A,,Clear,220,2012-10-02 16:55:00
10:15 AM,64.4,32.0,30,30.13,10.0,SW,4.6,-,N/A,,Clear,230,2012-10-02 17:15:00
10:35 AM,66.2,30.2,26,30.13,10.0,Calm,Calm,-,N/A,,Clear,0,2012-10-02 17:35:00
10:55 AM,66.2,26.6,23,30.13,10.0,WNW,4.6,-,N/A,,Clear,290,2012-10-02 17:55:00
11:15 AM,68.0,24.8,20,30.12,8.0,NW,4.6,-,N/A,,Clear,310,2012-10-02 18:15:00
11:35 AM,69.8,17.6,14,30.12,7.0,NW,5.8,-,N/A,,Clear,310,2012-10-02 18:35:00
11:55 AM,71.6,19.4,14,30.11,10.0,ENE,3.5,-,N/A,,Clear,70,2012-10-02 18:55:00
12:15 PM,71.6,14.0,11,30.11,10.0,Calm,Calm,-,N/A,,Clear,0,2012-10-02 19:15:00
12:35 PM,71.6,5.0,7,30.11,10.0,Calm,Calm,-,N/A,,Clear,0,2012-10-02 19:35:00
12:55 PM,73.4,3.2,6,30.11,10.0,Calm,Calm,-,N/A,,Clear,0,2012-10-02 19:55:00
1:15 PM,73.4,-0.4,5,30.10,10.0,North,9.2,-,N/A,,Clear,10,2012-10-02 20:15:00
1:35 PM,73.4,-0.4,5,30.10,10.0,NNE,6.9,-,N/A,,Clear,20,2012-10-02 20:35:00
1:55 PM,75.2,5.0,7,30.09,10.0,NW,9.2,-,N/A,,Clear,320,2012-10-02 20:55:00
2:15 PM,75.2,5.0,7,30.09,10.0,NW,4.6,16.1,N/A,,Clear,320,2012-10-02 21:15:00
2:35 PM,75.2,3.2,6,30.09,10.0,North,9.2,-,N/A,,Clear,360,2012-10-02 21:35:00
2:55 PM,75.2,5.0,7,30.08,10.0,North,10.4,-,N/A,,Clear,350,2012-10-02 21:55:00
3:15 PM,75.2,3.2,6,30.08,10.0,Calm,Calm,-,N/A,,Clear,0,2012-10-02 22:15:00
3:35 PM,77.0,3.2,6,30.08,10.0,NNE,4.6,-,N/A,,Clear,30,2012-10-02 22:35:00
3:55 PM,77.0,1.4,5,30.08,10.0,North,8.1,-,N/A,,Clear,350,2012-10-02 22:55:00
4:15 PM,77.0,-0.4,5,30.08,10.0,North,10.4,-,N/A,,Clear,360,2012-10-02 23:15:00
4:35 PM,75.2,-5.8,4,30.08,10.0,North,9.2,-,N/A,,Clear,10,2012-10-02 23:35:00
4:55 PM,75.2,-9.4,4,30.08,10.0,NE,6.9,16.1,N/A,,Clear,40,2012-10-02 23:55:00
5:15 PM,75.2,-16.6,4,30.07,10.0,NNE,9.2,-,N/A,,Clear,20,2012-10-03 00:15:00
5:35 PM,73.4,-14.8,4,30.08,10.0,North,9.2,-,N/A,,Clear,10,2012-10-03 00:35:00
5:55 PM,73.4,-13.0,4,30.08,10.0,NNE,8.1,-,N/A,,Clear,20,2012-10-03 00:55:00
6:15 PM,71.6,-11.2,4,30.08,10.0,North,6.9,-,N/A,,Clear,10,2012-10-03 01:15:00
6:35 PM,68.0,-11.2,4,30.08,10.0,NNE,8.1,-,N/A,,Clear,20,2012-10-03 01:35:00
6:55 PM,66.2,-11.2,4,30.09,10.0,NNE,6.9,-,N/A,,Clear,20,2012-10-03 01:55:00
7:15 PM,64.4,-11.2,5,30.09,10.0,North,3.5,-,N/A,,Clear,350,2012-10-03 02:15:00
7:35 PM,62.6,-5.8,6,30.10,10.0,North,4.6,-,N/A,,Clear,350,2012-10-03 02:35:00
7:55 PM,60.8,-2.2,8,30.10,10.0,North,5.8,-,N/A,,Clear,360,2012-10-03 02:55:00
8:15 PM,59.0,-0.4,9,30.10,10.0,North,5.8,-,N/A,,Clear,350,2012-10-03 03:15:00
8:35 PM,57.2,-0.4,10,30.11,10.0,NNE,5.8,-,N/A,,Clear,20,2012-10-03 03:35:00
8:55 PM,55.4,-0.4,10,30.12,10.0,ENE,3.5,-,N/A,,Clear,60,2012-10-03 03:55:00
9:15 PM,51.8,-0.4,12,30.12,10.0,Calm,Calm,-,N/A,,Clear,0,2012-10-03 04:15:00
9:35 PM,48.2,-0.4,13,30.13,10.0,North,3.5,-,N/A,,Clear,360,2012-10-03 04:35:00
9:55 PM,46.4,-0.4,14,30.14,10.0,Calm,Calm,-,N/A,,Clear,0,2012-10-03 04:55:00
10:15 PM,44.6,1.4,17,30.14,10.0,Calm,Calm,-,N/A,,Clear,0,2012-10-03 05:15:00
10:35 PM,44.6,3.2,18,30.14,10.0,Calm,Calm,-,N/A,,Clear,0,2012-10-03 05:35:00
10:55 PM,41.0,1.4,19,30.14,10.0,Calm,Calm,-,N/A,,Clear,0,2012-10-03 05:55:00
11:15 PM,41.0,1.4,19,30.15,10.0,Calm,Calm,-,N/A,,Clear,0,2012-10-03 06:15:00
11:35 PM,41.0,3.2,21,30.16,10.0,SW,3.5,-,N/A,,Clear,220,2012-10-03 06:35:00
11:55 PM,39.2,5.0,24,30.16,10.0,Calm,Calm,-,N/A,,Clear,0,2012-10-03 06:55:00